TA2VIP-13 Weather Reports


time (UTC)temp
C
wind
direction
speed
KPH
gust
KPH
rain 1hr
cm
rain 24hr
cm
rain mn
cm
humidity
%
barometer
mb
20260508101640 20 270 12.9 12.9 0.00 0.00 0.00 50 1015.0
20260508100640 20 270 12.9 12.9 0.00 0.00 0.00 50 1015.0
20260508095610 20 270 12.9 12.9 0.00 0.00 0.00 50 1015.0
20260508094610 20 160 9.7 9.7 0.00 0.00 0.00 50 1015.0
20260508093610 20 160 9.7 9.7 0.00 0.00 0.00 50 1015.0
20260508092610 20 160 9.7 9.7 0.00 0.00 0.00 50 1015.0
20260508091610 18 260 9.7 9.7 0.00 0.00 0.00 50 1015.0
20260508090610 18 260 9.7 9.7 0.00 0.00 0.00 50 1015.0
20260508085610 18 260 9.7 9.7 0.00 0.00 0.00 50 1015.0
20260508084610 17 270 8.0 8.0 0.00 0.00 0.00 50 1015.0
20260508083610 17 270 8.0 8.0 0.00 0.00 0.00 50 1015.0
20260508082610 17 270 8.0 8.0 0.00 0.00 0.00 50 1015.0
20260508081610 16 280 9.7 9.7 0.00 0.00 0.00 50 1015.0
20260508080610 16 280 9.7 9.7 0.00 0.00 0.00 50 1015.0
20260508075610 16 280 9.7 9.7 0.00 0.00 0.00 50 1015.0
20260508074610 16 220 6.4 6.4 0.00 0.00 0.00 50 1015.0
20260508073610 16 220 6.4 6.4 0.00 0.00 0.00 50 1015.0
20260508072610 16 220 6.4 6.4 0.00 0.00 0.00 50 1015.0
20260508071610 15 0 0.0 0.0 0.00 0.00 0.00 50 1015.0
20260508070610 15 0 0.0 0.0 0.00 0.00 0.00 50 1015.0
20260508065610 15 0 0.0 0.0 0.00 0.00 0.00 50 1015.0
20260508064610 13 0 0.0 0.0 0.00 0.00 0.00 50 1015.0
20260508063610 13 0 0.0 0.0 0.00 0.00 0.00 50 1015.0
20260508062610 13 0 0.0 0.0 0.00 0.00 0.00 50 1015.0
20260508061610 12 0 0.0 0.0 0.00 0.00 0.00 50 1015.0
20260508060610 12 0 0.0 0.0 0.00 0.00 0.00 50 1015.0
20260508055610 12 0 0.0 0.0 0.00 0.00 0.00 50 1015.0
20260508054540 11 0 0.0 0.0 0.00 0.00 0.00 50 1015.0
20260508053540 11 0 0.0 0.0 0.00 0.00 0.00 50 1015.0
20260508052540 11 0 0.0 0.0 0.00 0.00 0.00 50 1015.0
20260508051540 8 0 0.0 0.0 0.00 0.00 0.00 50 1015.0
20260508050540 8 0 0.0 0.0 0.00 0.00 0.00 50 1015.0
20260508045540 8 0 0.0 0.0 0.00 0.00 0.00 50 1015.0
20260508044540 5 0 0.0 0.0 0.00 0.00 0.00 50 1015.0
20260508043540 5 0 0.0 0.0 0.00 0.00 0.00 50 1015.0
20260508042540 5 0 0.0 0.0 0.00 0.00 0.00 50 1015.0
20260508041540 5 10 4.8 4.8 0.00 0.00 0.00 50 1015.0
20260508040540 5 10 4.8 4.8 0.00 0.00 0.00 50 1015.0
20260508035540 5 10 4.8 4.8 0.00 0.00 0.00 50 1015.0
20260508034540 5 0 0.0 0.0 0.00 0.00 0.00 50 1015.0
20260508033540 5 0 0.0 0.0 0.00 0.00 0.00 50 1015.0
20260508032540 5 0 0.0 0.0 0.00 0.00 0.00 50 1015.0
20260508031540 3 0 0.0 0.0 0.00 0.00 0.00 50 1015.0
20260508030540 3 0 0.0 0.0 0.00 0.00 0.00 50 1015.0
20260508025540 3 0 0.0 0.0 0.00 0.00 0.00 50 1015.0
20260508024540 5 0 0.0 0.0 0.00 0.00 0.00 50 1015.0
20260508023540 5 0 0.0 0.0 0.00 0.00 0.00 50 1015.0
20260508022540 5 0 0.0 0.0 0.00 0.00 0.00 50 1015.0
20260508021541 5 50 3.2 3.2 0.00 0.00 0.00 50 1015.0
20260508020540 5 50 3.2 3.2 0.00 0.00 0.00 50 1015.0
20260508015540 5 50 3.2 3.2 0.00 0.00 0.00 50 1015.0
20260508014510 5 40 6.4 6.4 0.00 0.00 0.00 50 1015.0
20260508013510 5 40 6.4 6.4 0.00 0.00 0.00 50 1015.0
20260508012510 6 60 4.8 4.8 0.00 0.00 0.00 50 1015.0
20260508011510 6 60 4.8 4.8 0.00 0.00 0.00 50 1015.0
20260508010510 6 60 4.8 4.8 0.00 0.00 0.00 50 1015.0
20260508005510 5 10 4.8 4.8 0.00 0.00 0.00 50 1015.0
20260508004511 5 10 4.8 4.8 0.00 0.00 0.00 50 1015.0
20260508003510 5 10 4.8 4.8 0.00 0.00 0.00 50 1015.0
20260508002511 6 0 0.0 0.0 0.00 0.00 0.00 50 1015.0
20260508001511 6 0 0.0 0.0 0.00 0.00 0.00 50 1015.0
20260508000511 6 0 0.0 0.0 0.00 0.00 0.00 50 1015.0
20260507235511 6 30 6.4 6.4 0.00 0.00 0.00 50 1015.0
20260507234511 6 30 6.4 6.4 0.00 0.00 0.00 50 1015.0
20260507233511 6 30 6.4 6.4 0.00 0.00 0.00 50 1015.0
20260507232511 8 0 0.0 0.0 0.00 0.00 0.00 50 1015.0
20260507231511 8 0 0.0 0.0 0.00 0.00 0.00 50 1015.0
20260507230511 8 0 0.0 0.0 0.00 0.00 0.00 50 1015.0
20260507225511 8 30 6.4 6.4 0.00 0.00 0.00 50 1015.0
20260507224511 8 30 6.4 6.4 0.00 0.00 0.00 50 1015.0
20260507223511 8 30 6.4 6.4 0.00 0.00 0.00 50 1015.0
20260507222511 10 0 0.0 0.0 0.00 0.00 0.00 50 1015.0
20260507221441 10 0 0.0 0.0 0.00 0.00 0.00 50 1015.0
20260507220441 10 0 0.0 0.0 0.00 0.00 0.00 50 1015.0
20260507215441 10 0 0.0 0.0 0.00 0.00 0.00 50 1015.0
20260507214441 10 0 0.0 0.0 0.00 0.00 0.00 50 1015.0
20260507213441 10 0 0.0 0.0 0.00 0.00 0.00 50 1015.0
20260507212441 12 120 4.8 4.8 0.00 0.00 0.00 50 1015.0
20260507211441 12 120 4.8 4.8 0.00 0.00 0.00 50 1015.0
20260507210441 12 120 4.8 4.8 0.00 0.00 0.00 50 1015.0
20260507205441 11 0 0.0 0.0 0.00 0.00 0.00 50 1015.0
20260507204441 11 0 0.0 0.0 0.00 0.00 0.00 50 1015.0
20260507203441 11 0 0.0 0.0 0.00 0.00 0.00 50 1015.0
20260507202441 11 20 8.0 8.0 0.00 0.00 0.00 50 1015.0
20260507201441 11 20 8.0 8.0 0.00 0.00 0.00 50 1015.0
20260507200441 11 20 8.0 8.0 0.00 0.00 0.00 50 1015.0
20260507195441 12 50 6.4 6.4 0.00 0.00 0.00 50 1015.0
20260507194441 12 50 6.4 6.4 0.00 0.00 0.00 50 1015.0
20260507193441 12 50 6.4 6.4 0.00 0.00 0.00 50 1015.0
20260507192441 13 110 4.8 4.8 0.00 0.00 0.00 50 1015.0
20260507191441 13 110 4.8 4.8 0.00 0.00 0.00 50 1015.0
20260507190441 13 110 4.8 4.8 0.00 0.00 0.00 50 1015.0
20260507185411 12 90 4.8 4.8 0.00 0.00 0.00 50 1015.0
20260507184411 12 90 4.8 4.8 0.00 0.00 0.00 50 1015.0
20260507183411 12 90 4.8 4.8 0.00 0.00 0.00 50 1015.0
20260507182411 15 0 0.0 0.0 0.00 0.00 0.00 50 1015.0
20260507181411 15 0 0.0 0.0 0.00 0.00 0.00 50 1015.0
20260507180411 15 0 0.0 0.0 0.00 0.00 0.00 50 1015.0
20260507175411 13 0 0.0 0.0 0.00 0.00 0.00 50 1015.0
20260507174411 13 0 0.0 0.0 0.00 0.00 0.00 50 1015.0
20260507173411 13 0 0.0 0.0 0.00 0.00 0.00 50 1015.0
20260507172411 15 250 4.8 4.8 0.00 0.00 0.00 50 1015.0
20260507171411 15 250 4.8 4.8 0.00 0.00 0.00 50 1015.0
20260507170411 15 250 4.8 4.8 0.00 0.00 0.00 50 1015.0
20260507165411 15 270 6.4 6.4 0.00 0.00 0.00 50 1015.0
20260507164411 15 270 6.4 6.4 0.00 0.00 0.00 50 1015.0
20260507163411 15 270 6.4 6.4 0.00 0.00 0.00 50 1015.0
20260507162411 16 270 11.3 11.3 0.00 0.00 0.00 50 1015.0
20260507161411 16 270 11.3 11.3 0.00 0.00 0.00 50 1015.0
20260507160411 16 270 11.3 11.3 0.00 0.00 0.00 50 1015.0
20260507155411 17 260 11.3 11.3 0.00 0.00 0.00 50 1015.0
20260507154411 17 260 11.3 11.3 0.00 0.00 0.00 50 1015.0
20260507153411 17 260 11.3 11.3 0.00 0.00 0.00 50 1015.0
20260507152411 17 250 12.9 12.9 0.00 0.00 0.00 50 1015.0
20260507151411 17 250 12.9 12.9 0.00 0.00 0.00 50 1015.0
20260507150341 17 250 12.9 12.9 0.00 0.00 0.00 50 1015.0
20260507145341 18 260 9.7 9.7 0.00 0.00 0.00 50 1015.0
20260507144341 18 260 9.7 9.7 0.00 0.00 0.00 50 1015.0
20260507143341 18 260 9.7 9.7 0.00 0.00 0.00 50 1015.0
20260507142341 17 250 11.3 11.3 0.00 0.00 0.00 50 1015.0
20260507141341 17 250 11.3 11.3 0.00 0.00 0.00 50 1015.0
20260507140341 17 250 11.3 11.3 0.00 0.00 0.00 50 1015.0
20260507135341 18 290 11.3 11.3 0.00 0.00 0.00 50 1015.0
20260507134341 18 290 11.3 11.3 0.00 0.00 0.00 50 1015.0
20260507133341 18 290 11.3 11.3 0.00 0.00 0.00 50 1015.0
20260507132341 17 310 9.7 9.7 0.00 0.00 0.00 50 1015.0
20260507131341 17 310 9.7 9.7 0.00 0.00 0.00 50 1015.0
20260507130341 17 310 9.7 9.7 0.00 0.00 0.00 50 1015.0
20260507125341 17 0 0.0 0.0 0.00 0.00 0.00 50 1015.0
20260507124341 17 0 0.0 0.0 0.00 0.00 0.00 50 1015.0
20260507123341 17 0 0.0 0.0 0.00 0.00 0.00 50 1015.0
20260507122341 17 230 12.9 12.9 0.00 0.00 0.00 50 1015.0
20260507121341 17 230 12.9 12.9 0.00 0.00 0.00 50 1015.0
20260507120341 17 230 12.9 12.9 0.00 0.00 0.00 50 1015.0
20260507115342 16 180 6.4 6.4 0.00 0.00 0.00 50 1015.0
20260507114342 16 180 6.4 6.4 0.00 0.00 0.00 50 1015.0
20260507113312 16 180 6.4 6.4 0.00 0.00 0.00 50 1015.0
20260507112312 16 0 0.0 0.0 0.00 0.00 0.00 50 1015.0
20260507111312 16 0 0.0 0.0 0.00 0.00 0.00 50 1015.0
20260507110312 16 0 0.0 0.0 0.00 0.00 0.00 50 1015.0
20260507105312 16 0 0.0 0.0 0.00 0.00 0.00 50 1015.0
20260507104312 16 0 0.0 0.0 0.00 0.00 0.00 50 1015.0
20260507103312 16 0 0.0 0.0 0.00 0.00 0.00 50 1015.0
20260507102312 15 270 6.4 6.4 0.00 0.00 0.00 50 1015.0